Home   Weather   Melbourne   Past weeks
Flag for USA

Past Weather in Melbourne, Tennessee, USA — Yesterday and Last 2 Weeks

Now
58 °F

Passing clouds.


Feels Like: 58 °F
Forecast: 82 / 57 °F
Wind: No wind

Location: McGhee Tyson Airport

Current Time: Apr 24, 2019 at 6:06:53 am

Latest Report: Apr 24, 2019 at 4:53 am


Visibility: 10 mi

Pressure: 29.96 "Hg

Humidity: 75%

Dew Point: 50 °F

Location of MelbourneLocation

Past Weather in Melbourne — Graph

°F

Melbourne Temperature Yesterday

Maximum temperature yesterday: 80 °F (at 3:53 pm)
Minimum temperature yesterday: 50 °F (at 6:53 am)
Average temperature yesterday: 66 °F

High & Low Weather Summary for the Past Weeks

 TemperatureHumidityPressure
High81 °F (Apr 11, 1:53 pm)96% (Apr 9, 4:53 am)30.24 "Hg (Apr 9, 4:53 am)
Low40 °F (Apr 16, 4:53 am)20% (Apr 10, 3:53 pm)29.30 "Hg (Apr 19, 4:53 pm)
Average62 °F64%29.88 "Hg
* Reported Apr 9 4:53 am — Apr 24 4:53 am, Melbourne. Weather by CustomWeather, © 2019

Note: Actual official high and low records may vary slightly from our data, if they occured in-between our weather recording intervals... More about our weather records

Advertising

Melbourne Weather History for the Previous 24 Hours

Scroll right to see more
 ConditionsComfort  
Time TempWeatherWind HumidityBarometerVisibility
4:53 am
Wed, Apr 24
58 °FPassing clouds.No wind75%29.96 "Hg10 mi
3:53 am62 °FPassing clouds.No wind62%29.96 "Hg10 mi
2:53 am61 °FPassing clouds.6 mph62%29.97 "Hg10 mi
1:53 am63 °FPassing clouds.6 mph56%29.98 "Hg10 mi
12:53 am63 °FPassing clouds.6 mph58%29.98 "Hg10 mi
11:53 pm
Tue, Apr 23
64 °FPassing clouds.6 mph56%29.98 "Hg10 mi
10:53 pm68 °FPassing clouds.5 mph49%29.99 "Hg10 mi
9:53 pm70 °FMostly cloudy.7 mph49%29.99 "Hg10 mi
8:53 pm72 °FMostly cloudy.7 mph49%29.97 "Hg10 mi
7:53 pm73 °FOvercast.8 mph46%29.97 "Hg10 mi
6:53 pm74 °FOvercast.10 mph48%29.98 "Hg10 mi
5:53 pm77 °FOvercast.10 mph40%29.97 "Hg10 mi
4:53 pm78 °FPartly sunny.14 mph40%29.98 "Hg10 mi
3:53 pm80 °FPartly sunny.14 mph34%30.01 "Hg10 mi
2:53 pm79 °FScattered clouds.14 mph38%30.03 "Hg10 mi
1:53 pm78 °FScattered clouds.3 mph40%30.05 "Hg10 mi
12:53 pm77 °FPassing clouds.16 mph44%30.08 "Hg10 mi
11:53 am74 °FPartly sunny.8 mph46%30.10 "Hg10 mi
10:53 am69 °FPartly sunny.6 mph59%30.11 "Hg10 mi
9:53 am63 °FPartly sunny.No wind63%30.11 "Hg10 mi
8:53 am59 °FScattered clouds.No wind72%30.11 "Hg10 mi
7:53 am52 °FPartly sunny.No wind86%30.11 "Hg10 mi
6:53 am50 °FPartly sunny.No wind86%30.09 "Hg10 mi
Weather by CustomWeather, © 2019

See weather overview